This is the latest recevied weather packets stored in our database for station/object K0QJ. If no packets are shown the sender has not sent any weather packets the latest 10 day(s).
| Time | Temp. | Humidity | Pressure | Rain* | Wind** | Luminosity | Snow |
|---|---|---|---|---|---|---|---|
| 1777312680 | 25° C | 68% | 1000.6 hPa | 0 mm | - | 199 W/m² | - |
| 1777312377 | 26.11° C | 67% | 1000.5 hPa | 0 mm | - | 514 W/m² | - |
| 1777312074 | 25.56° C | 67% | 1000.5 hPa | 0 mm | - | 861 W/m² | - |
| 1777311771 | 26.11° C | 65% | 1000.3 hPa | 0 mm | - | 321 W/m² | - |
| 1777311469 | 25.56° C | 66% | 1000.3 hPa | 0 mm | - | 794 W/m² | - |
| 1777311165 | 25.56° C | 67% | 1000.1 hPa | 0 mm | - | 776 W/m² | - |
| 1777310864 | 25° C | 66% | 1000.2 hPa | 0 mm | - | 832 W/m² | - |
| 1777310561 | 25° C | 69% | 1000.2 hPa | 0 mm | - | 505 W/m² | - |
| 1777310258 | 24.44° C | 69% | 999.9 hPa | 0 mm | - | 809 W/m² | - |
| 1777309955 | 24.44° C | 71% | 999.9 hPa | 0 mm | - | 807 W/m² | - |
| 1777309653 | 23.89° C | 74% | 999.8 hPa | 0 mm | - | 849 W/m² | - |
| 1777309350 | 23.33° C | 75% | 999.8 hPa | 0 mm | - | 873 W/m² | - |
| 1777309048 | 22.78° C | 75% | 1000 hPa | 0 mm | - | 822 W/m² | - |
| 1777308745 | 22.78° C | 77% | 999.8 hPa | 0 mm | - | 848 W/m² | - |
| 1777308440 | 22.78° C | 77% | 1000 hPa | 0 mm | - | 838 W/m² | - |
| 1777308136 | 22.22° C | 78% | 999.5 hPa | 0 mm | - | 827 W/m² | - |
| 1777307833 | 21.67° C | 82% | 999.6 hPa | 0 mm | - | 846 W/m² | - |
| 1777307531 | 20.56° C | 86% | 999.8 hPa | 0 mm | - | 841 W/m² | - |
| 1777307227 | 18.89° C | 90% | 999.9 hPa | 0 mm | - | 820 W/m² | - |
| 1777306925 | 18.89° C | 94% | 999.9 hPa | 0 mm | - | 794 W/m² | - |
| 1777306621 | 17.78° C | 96% | 999.6 hPa | 0 mm | - | 792 W/m² | - |
| 1777306317 | 17.78° C | 98% | 999.5 hPa | 0 mm | - | 733 W/m² | - |
| 1777306011 | 17.78° C | 98% | 1000.1 hPa | 0 mm | - | 691 W/m² | - |
| 1777305709 | 18.33° C | 98% | 999.8 hPa | 0 mm | - | 671 W/m² | - |
| 1777305399 | 18.33° C | 98% | 999.9 hPa | 0 mm | - | 660 W/m² | - |
* Rain latest hour (hover to see other rain measurements)
** Current wind speed in m/s (hover to see current wind gust speed)